Overview Statistics Trail Chart Weather Telemetry Raw packets
 

This is the latest recevied weather packets stored in our database for station/object KG7FOQ-13. If no packets are shown the sender has not sent any weather packets the latest 10 day(s).

<< 108 109 110 111 112 113 114 >>
Time Temp. Humidity Pressure Rain* Wind** Luminosity Snow
1787791046 28.33° C 32% 1016.4 hPa 0 mm - - -
1787790747 28.33° C 33% 1016.4 hPa 0 mm - - -
1787790445 28.89° C 32% 1016.4 hPa 0 mm - - -
1787790146 28.89° C 32% 1016.6 hPa 0 mm - - -
1787789845 28.89° C 33% 1016.6 hPa 0 mm - - -
1787789544 28.89° C 32% 1016.6 hPa 0 mm - - -
1787789243 28.89° C 35% 1016.7 hPa 0 mm - - -
1787788942 28.89° C 32% 1016.9 hPa 0 mm - - -
1787788720 28.33° C 34% 1016.7 hPa 0 mm - - -
1787788642 28.33° C 34% 1016.7 hPa 0 mm - - -
1787788341 28.33° C 33% 1016.7 hPa 0 mm - - -
1787788041 28.33° C 32% 1016.9 hPa 0 mm - - -
1787787740 28.89° C 32% 1017 hPa 0 mm - - -
1787787440 28.33° C 31% 1017.1 hPa 0 mm - - -
1787787219 28.33° C 32% 1017.2 hPa 0 mm - - -
1787787139 28.33° C 32% 1017.2 hPa 0 mm - - -
1787786539 27.78° C 33% 1017.4 hPa 0 mm - - -
1787786238 27.78° C 32% 1017.4 hPa 0 mm - - -
1787785938 27.78° C 33% 1017.5 hPa 0 mm - - -
1787785638 28.33° C 31% 1017.5 hPa 0 mm - - -
1787785525 28.89° C 29% 1017.4 hPa 0 mm - - -
1787785336 28.89° C 29% 1017.4 hPa 0 mm - - -
1787785108 28.89° C 27% 1017.4 hPa 0 mm - - -
1787785036 28.89° C 27% 1017.4 hPa 0 mm - - -
1787784736 28.89° C 27% 1017.5 hPa 0 mm - - -

* Rain latest hour (hover to see other rain measurements)
** Current wind speed in m/s (hover to see current wind gust speed)